Location: Newark
(41.8922°N, 9.0050°E)
Time: 10:20:44
(UTC+00:00)

ISS - Pass Details

Date: 26 January 2020
Orbit: 415 x 423 km, 51.6° (Epoch: 27 February)

Event Time Altitude Azimuth Distance (km) Brightness Sun altitude
Rises 18:58:16 0° 295° (WNW) 2,379 1.1 -27.4°
Reaches altitude 10° 19:01:00 10° 318° (NW) 1,512 -0.5 -27.9°
Enters shadow 19:01:14 11° 321° (NW) 1,454 -0.6 -28.0°
